Preview of NWS' New Version of Forecast
This preview is not operational and should not be used for support decisions.

Regional Weather Roundup (RWR)

Issued by Philadelphia/Mt Holly (PHI)

                            
000
ASUS41 KPHI 181212
RWRPHI

REGIONAL WEATHER ROUNDUP
NATIONAL WEATHER SERVICE MOUNT HOLLY NJ
800 AM EDT WED SEP 18 2019

NOTE:  "FAIR" INDICATES FEW OR NO CLOUDS BELOW 12,000 FEET WITH NO
SIGNIFICANT WEATHER AND/OR OBSTRUCTIONS TO VISIBILITY.

 * = STATION DOES NOT REPORT PRECIPITATION (E.G. RAIN, SNOW, ETC.) 
        OR FOG.

NJZ015>026-181300-
SOUTHERN NEW JERSEY
  
CITY           SKY/WX    TMP DP  RH WIND       PRES   REMARKS
POMONA         PTSUNNY   57  53  86 N6        30.19R                  
6HR MIN TEMP:  53; 6HR MAX TEMP:  57;                                

WILDWOOD*      FAIR      60  56  86 N8        30.18R                  
MILLVILLE      FAIR      58  52  80 N5        30.19R                  
WRIGHTSTOWN    FAIR      59  52  77 N6        30.21R                  
MOUNT HOLLY    FAIR      57  52  83 NE3       30.21R                  
TRENTON        FAIR      57  48  72 N6        30.22R                  
6HR MIN TEMP:  53; 6HR MAX TEMP:  57;                                


$$
NJZ001>014-181300-
NORTHERN NEW JERSEY
  
CITY           SKY/WX    TMP DP  RH WIND       PRES   REMARKS
SUSSEX         FAIR      50  48  93 CALM      30.26R                  
ANDOVER*         N/A     51  48  89 N3        30.26R                  
MORRISTOWN     MOSUNNY   54  54 100 CALM      30.25R                  
NEWARK         FAIR      59  49  69 N12       30.23R                  
TETERBORO      CLOUDY    60  49  66 N7        30.23R                  
CALDWELL       FAIR      57  49  74 NE5       30.25R                  
SOMERVILLE     FAIR      55  49  80 NW3       30.22R                  
ALLAIRE*       PTSUNNY   60  56  86 N7        30.22R                  
TOMS RIVER*    PTSUNNY  N/A N/A N/A N6        30.21R                  

$$
PAZ043-044-047-054-055-060>062-066>071-181300-
EASTERN PENNSYLVANIA
  
CITY           SKY/WX    TMP DP  RH WIND       PRES   REMARKS
PHILADELPHIA   FAIR      61  50  67 NE5       30.21R                  
6HR MIN TEMP:  58; 6HR MAX TEMP:  63;                                

NORTH PHILA    FAIR      61  49  64 NE12      30.23R                  
BLUE BELL*     FAIR      54  50  86 CALM      30.23R                  
DOYLESTOWN     PTSUNNY   55  47  74 NE3       30.23R                  
QUAKERTOWN*    SUNNY     54  50  87 VRB3      30.24                   
PERKASIE*      FAIR      54  50  87 NE6       30.24R                  
POTTSTOWN      FAIR      53  49  86 CALM      30.25R                  
LANCASTER      FAIR      57  49  74 E3        30.22R                  
COATESVILLE    FAIR      55  48  76 N5        30.23R                  
WEST CHESTER   FAIR      57  46  67 NE6       30.22R                  
READING        FAIR      56  51  84 N6        30.23R                  
6HR MIN TEMP:  53; 6HR MAX TEMP:  58;                                

ALLENTOWN      FAIR      55  47  74 CALM      30.24R                  
6HR MIN TEMP:  50; 6HR MAX TEMP:  57;                                

QN CITY/ALNTWN FAIR      55  48  76 NE8       30.26R                  
MOUNT POCONO   FAIR      50  46  86 N9        30.25R                  
6HR MIN TEMP:  43; 6HR MAX TEMP:  50;                                

HAZLETON       FAIR      46  45  93 CALM      30.28R                  
LEHIGHTON      FAIR      45  45 100 CALM      30.27R                  
WILKES BARRE   FAIR      50  45  83 E5        30.27R                  

$$
DEZALL-MDZ008-012-015-019-020-181300-
DELAWARE AND EASTERN MARYLAND
  
CITY           SKY/WX    TMP DP  RH WIND       PRES   REMARKS
WILMINGTON     FAIR      58  55  90 NW5       30.21R                  
6HR MIN TEMP:  54; 6HR MAX TEMP:  58;                                

DOVER          FAIR      62  59  91 N5        30.18R                  
CHESWOLD       SUNNY     57  55  94 CALM      30.19R                  
GEORGETOWN     FAIR      61  56  83 N3        30.18R                  
6HR MIN TEMP:  52; 6HR MAX TEMP:  61;                                

EASTON         SUNNY     59  55  88 N3        30.21R                  
STEVENSVILLE   FAIR      64  57  77 NE3       30.19R                  
ABERDEEN       SUNNY     57  55  94 CALM      30.20R                  
PATUXENT       FAIR      68  56  65 NE7       30.17                   
OCEAN CITY     PTSUNNY   69  54  58 NE12      30.15R                  
WALLOPS ISLAND FAIR      59  54  83 N7        30.15R                  
CAMBRIDGE      SUNNY     57  55  94 CALM      30.18R                  
SALISBURY      FAIR      60  54  80 N6        30.16R                  

$$
PAZ001-021-NYZ056-072-MDZ011-DCZ001-181300-
OTHER NEARBY LOCATIONS
  
CITY           SKY/WX    TMP DP  RH WIND       PRES   REMARKS
HARRISBURG     FAIR      58  47  66 CALM      30.22R                  
STATE COLLEGE  MOSUNNY   46  46 100 NE3       30.26R                  
WILLIAMSPORT   PTSUNNY   51  48  89 CALM      30.26R                  
BINGHAMTON     FAIR      49  44  83 NE8       30.28R                  
NEW YORK CITY  PTSUNNY   60  49  66 N6        30.26R                  
BALTIMORE      FAIR      62  57  83 CALM      30.19R                  
WASHINGTON DC  FAIR      65  58  78 NE6       30.19R                  

$$